Location: Hiekkapohja
(62.3333°N, 25.7833°E)
Time: 19:46:15
(UTC+00:00)

Cosmos 2266 Rocket - Pass Details

Date: 07 August 2020
Orbit: 934 x 1009 km, 82.9° (Epoch: 28 September)

Event Time Altitude Azimuth Distance (km) Brightness Sun altitude
Rises 00:40:54 0° 345° (NNW) 3,756 7.7 -6.8°
Reaches altitude 10° 00:43:27 10° 344° (NNW) 2,799 7.0 -6.6°
Maximum altitude 00:49:53 79° 260° (W) 1,025 4.1 -6.2°
Drops below altitude 10° 00:56:13 10° 175° (S) 2,746 5.9 -5.8°
Sets 00:58:42 0° 174° (S) 3,681 6.6 -5.6°
